Aérodrome :
LOGIN :

S'inscrire | Disclaimer

   EN    FR    IT 

 










Légende :    VFR   VFR Marginal   IFR   IFR Intensif   IFR Très Intensif
Visi : 
Plafond : 
>= 8 km
>= 3000ft
5 à 8 km
1000 à 3000 ft
1500m à 5 km
500 à 1000 ft
800 à 1500m
200 à 500 ft
< 800m
< 200 ft
Symboles :   Orages  Brouillard  Fortes neiges  Fortes précipitations  Vent > 20 kt
SIGMETs :   Divers  Orages  Givrage  Turbulence  Onde Orograph.  Cendres Volcan.







- Altitude de l'aérodrome : 219 ft
- Code IATA : DNR
- Voir les cartes d'approche


LFRD - Dinard

DERNIER METAR :
  • 171130Z AUTO 22013KT 9999 SCT017 12/09 Q1017 TEMPO BKN015

METARs EXPIRÉS :
  • 171100Z AUTO 19010KT CAVOK 12/08 Q1017 TEMPO BKN015
  • 171030Z AUTO 18012KT CAVOK 10/07 Q1017 TEMPO BKN015
  • 171000Z AUTO 18014KT CAVOK 09/06 Q1016 TEMPO BKN015
  • 170930Z AUTO 19013KT CAVOK 08/06 Q1016 NOSIG
  • 170900Z AUTO 18012KT CAVOK 08/05 Q1016 NOSIG

TAF TAF LFRD
Valide du 17 à 12h jusqu'au 18 à 12h UTC


171100Z 1712/1812 18012KT CAVOK
PROB40
TEMPO 1712/1720 BKN015
BECMG 1800/1802 16004KT 3000 BR BKN003
BECMG 1809/1812 23006KT 9999 NSW BKN007
ATIS : +33 2 99 16 81 50
Pas de NOTAMs connus pour ce terrain.



MET'MAP, la Météo Aéronautique d'un coup d'oeil ! - Copyright ORBIFLY Décembre 2007 - Disclaimer

ORBIFLY MET'MAP TEAM :

Programmation & Développement : Alexandra Zaïnal
Conception & Développement : Baudouin d'Aumeries
Co-Programmation & Développement : Marc-Olivier Méhu
Soutien technique & logistique : Manuel Goepfert

Contact : metmap@orbifly.com




SOURCES & CREDITS :

   NOAA